Location: Baia Mare
(47.6567°N, 23.5850°E)
Time: 20:05:49
(UTC+02:00)

ISS - Pass Details

Date: 10 February 2018
Orbit: 402 x 407 km, 51.6° (Epoch: 25 February)

Event Time Altitude Azimuth Distance (km) Brightness Sun altitude
Rises 18:05:27 0° 293° (WNW) 2,320 0.9 -4.8°
Reaches altitude 10° 18:07:33 10° 295° (WNW) 1,459 -0.2 -5.1°
Maximum altitude 18:10:49 79° 22° (NNE) 416 -3.8 -5.7°
Drops below altitude 10° 18:14:05 10° 110° (ESE) 1,455 -1.5 -6.2°
Enters shadow 18:15:13 - 111° (ESE) 1,927 -0.9 -6.4°
